Location: Brabourne
(51.1333°N, 1.0000°E)
Time: 07:58:44
(UTC+00:00)

USA 229 DEB - Visible Passes

Search period start: 28 October 2021 00:00
Search period end: 07 November 2021 00:00
Orbit: 953 x 1259 km, 63.4° (Epoch: 25 October)

Date Brightness Start Highest point End Pass type
(mag) Time Alt. Az. Time Alt. Az. Time Alt. Az.
28 Oct 3.6 18:08:44 10° SW 18:15:10 80° SE 18:21:27 13° NE visible
28 Oct 4.7 20:00:33 10° W 20:06:45 40° NNW 20:08:53 33° NNE visible
28 Oct 5.7 21:53:31 10° WNW 21:56:20 22° NW 21:56:20 22° NW visible
29 Oct 3.8 17:24:14 10° SSW 17:30:28 56° SE 17:37:09 10° NE visible
29 Oct 4.3 19:15:15 10° WSW 19:21:35 50° NNW 19:25:33 25° NNE visible
29 Oct 5.2 21:08:12 10° WNW 21:12:59 29° NNW 21:12:59 29° NNW visible
29 Oct 6.4 23:00:25 10° NW 23:00:25 10° NW 23:00:25 10° NW visible
30 Oct 4.0 18:30:06 10° WSW 18:36:32 64° NW 18:42:11 16° NE visible
30 Oct 5.0 20:22:47 10° WNW 20:28:46 33° NNW 20:29:37 32° N visible
30 Oct 6.0 22:15:24 10° NW 22:17:03 17° NW 22:17:03 17° NW visible
31 Oct 3.7 17:45:09 10° SW 17:51:38 85° NW 17:58:37 10° NE visible
31 Oct 4.8 19:37:22 10° W 19:43:28 37° NNW 19:46:13 27° NNE visible
31 Oct 5.5 21:30:14 10° NW 21:33:39 24° NNW 21:33:39 24° NNW visible
01 Nov 3.7 17:00:28 10° SSW 17:06:51 70° SE 17:13:43 10° NE visible
01 Nov 4.6 18:51:59 10° W 18:58:15 44° NNW 19:02:47 20° NE visible
01 Nov 5.2 20:44:58 10° WNW 20:50:13 30° N 20:50:13 30° N visible
01 Nov 6.2 22:36:58 10° NW 22:37:39 13° NW 22:37:39 13° NW visible
02 Nov 4.2 18:06:44 10° WSW 18:13:08 55° NW 18:19:21 13° NE visible
02 Nov 5.0 19:59:36 10° WNW 20:05:33 31° N 20:06:47 30° N visible
02 Nov 5.8 21:52:00 10° NW 21:54:12 20° NW 21:54:12 20° NW visible
03 Nov 3.9 17:21:40 10° SW 17:28:08 72° NW 17:35:08 10° NE visible
03 Nov 4.9 19:14:11 10° W 19:20:13 34° NNW 19:23:19 24° NNE visible
03 Nov 5.4 21:06:55 10° NW 21:10:44 27° NNW 21:10:44 27° NNW visible
04 Nov 4.7 18:28:46 10° W 18:34:56 39° NNW 18:39:51 17° NE visible
04 Nov 5.1 20:21:44 10° WNW 20:27:17 30° N 20:27:17 30° N visible
04 Nov 6.1 22:13:29 10° NW 22:14:43 16° NW 22:14:43 16° NW visible
05 Nov 4.4 17:43:26 10° WSW 17:49:45 48° NNW 17:56:23 11° NE visible
05 Nov 5.0 19:36:25 10° WNW 19:42:21 30° N 19:43:49 28° NNE visible
05 Nov 5.7 21:28:34 10° NW 21:31:14 23° NNW 21:31:14 23° NNW visible
06 Nov 4.1 16:58:15 10° WSW 17:04:42 61° NW 17:11:39 10° NE visible
06 Nov 4.9 18:51:01 10° WNW 18:56:58 32° N 19:00:20 22° NNE visible
06 Nov 5.2 20:43:33 10° NW 20:47:46 29° NNW 20:47:46 29° NNW visible
06 Nov 6.3 22:34:49 10° NW 22:35:12 12° NW 22:35:12 12° NW visible
